DELTA 1 DEB, 7038

Orbit data source: Space-Track

DELTA 1 DEB, 7038 is space debris in SSO originally from a launch on Tue, 06 Nov 1973 UTC launched from the Air Force Western Test Range (AFWTR). Debris objects in space refer to the collection of defunct objects orbiting the Earth. Examples of debris include non-operational satellites, rocket bodies, and fragments generated from explosions, collisions, or faulty payload assembly.

Loading next visibility...
Identifier
7038, 1973-086AE
Orbit
SSO
Last TLE update
18 hours ago
Origin
Manufacturer
Unknown
Mission
Spacecraft
Bus & Motor
Unknown
Mass
Unknown
Launch date (UTC)
1973-11-06 (52 years ago)
Launch vehicle
Unknown
Launch site
Air Force Western Test Range (AFWTR)
Object type
Payload
Rocket body
Debris
Shape & HBR
Unknown
Radar Cross Section
Medium (>0.1 m² and <1 m²)

Expand to show TLE details & history

TLE from 18 hours ago
0 DELTA 1 DEB
1 07038U 73086AE  25183.51662725  .00000043  00000-0  74924-3 0  9991
2 07038 101.9035  21.4724 0129916  57.3226 358.4139 12.24362886303711
Epoch: 2025-07-02T12:23Z
TLE epoch observation values (Epoch: 2025-07-02T12:23:56.594Z)
Latitude
54.02326°
Longitude
-102.10554°
Altitude
1,478.969 km
Speed
7.175 km/s
True Right ascension
00h 18m 42s
True Declination
53° 52' 29"
Sunlit
Object was in daylight at epoch
Visualization orbit readout
Latitude
2.36596°
Longitude
95.91051°
Altitude
1,628.932 km
Speed
7.033 km/s
Apparent Right ascension
11h 09m 48s
Apparent Declination
-24° 36' 04"
Sunlit
Object is in daylight
Visualization observer readout
Local Sidereal Time
18:27:59
Azimuth
261.758° W
Elevation
-30.029°
Doppler factor
1
Orbital elements
Apogee altitude
1,674.458 km
Perigee altitude
1,467.91 km
Semi-major axis
7,949.321 km
Eccentricity
0.01299
Inclination
101.9035°
RAAN
21.4724°
Arg. of periapsis
57.3226°
True anomaly
Unknown
Mean anomaly
358.4139°
Eccentric anomaly
Unknown
Mean motion
3.0623 °/min
Orbital period
117.56 mins
BSTAR
0.00074924
Loading maneuver chart data...
Loading SW <> Apogee altitude chart data...
Loading historical data...
Loading historical data...
Loading historical data...
Loading historical data...
Loading historical data...
Loading historical data...
Loading historical data...

DELTA 1 DEB Visibility forecast

Observer location: undefined°, undefined°

Span
Click to sort rows by Start time (UTC) header in descending order
Start Az.
Max El. time (UTC)
Max El. Az.
Max El.
End time (UTC)
End Az.
14 mins2025-07-03 11:46:15.915Z119.926° SE2025-07-03 11:53:15.915Z54.708° ENE31.166°2025-07-03 12:00:15.915Z357.137° N
14 mins2025-07-03 13:41:15.915Z187.838° SSW2025-07-03 13:48:15.915Z262.057° W37.369°2025-07-03 13:55:15.915Z329.885° NNW
5 mins2025-07-04 00:08:15.915Z76.816° E2025-07-04 00:10:15.915Z91.24° ESE12.824°2025-07-04 00:13:15.915Z111.916° ESE
16 mins2025-07-04 01:59:15.915Z22.458° NNE2025-07-04 02:06:15.915Z90.339° ESE43.82°2025-07-04 02:15:15.915Z191.314° SSW
11 mins2025-07-04 03:56:15.915Z347.957° N2025-07-04 04:01:15.915Z303.906° NW24.577°2025-07-04 04:07:15.915Z256.267° W
|